• în România
  • Lista ţărilor
  • Pe 7 zile
  • Temperatura apei
  • Hartă satelitară
  • Meteo pe hartă
  • Widget-uri
  • user-avatar
    Intrare

    Meteo pe oră la Shaki

    Astăzi, 21 Octombrie, Duminică

    Timp Temperatura Precipitaţii Vânt Presiune Umiditate
    00:00 +19°C° 0 mm 1 m/s 735 mmHg 47%
    01:00 +18°C° 0 mm 1 m/s 735 mmHg 47%
    02:00 +18°C° 0 mm 1 m/s 735 mmHg 47%
    03:00 +18°C° 0 mm 1 m/s 735 mmHg 47%
    04:00 +18°C° 0 mm 1 m/s 735 mmHg 45%
    05:00 +18°C° 0 mm 1 m/s 735 mmHg 44%
    06:00 +16°C° 0 mm 1 m/s 735 mmHg 42%
    07:00 +19°C° 0 mm 1 m/s 735 mmHg 39%
    08:00 +21°C° 0 mm 1 m/s 735 mmHg 36%
    09:00 +23°C° 0 mm 1 m/s 736 mmHg 32%
    10:00 +24°C° 0 mm 1 m/s 736 mmHg 31%
    11:00 +24°C° 0 mm 1 m/s 735 mmHg 30%
    12:00 +25°C° 0 mm 1 m/s 735 mmHg 29%
    13:00 +25°C° 0 mm 1 m/s 735 mmHg 29%
    14:00 +25°C° 0 mm 1 m/s 735 mmHg 29%
    15:00 +26°C° 0 mm 1 m/s 735 mmHg 29%
    16:00 +24°C° 0 mm 1 m/s 735 mmHg 33%
    17:00 +22°C° 0 mm 1 m/s 735 mmHg 37%
    18:00 +21°C° 0 mm 1 m/s 735 mmHg 41%
    19:00 +20°C° 0 mm 1 m/s 735 mmHg 41%
    20:00 +20°C° 0 mm 1 m/s 736 mmHg 41%
    21:00 +19°C° 0 mm 2 m/s 736 mmHg 41%
    22:00 +19°C° 0 mm 1 m/s 736 mmHg 41%
    23:00 +19°C° 0 mm 1 m/s 736 mmHg 40%

    Mâine, 22 Octombrie, Luni

    Timp Temperatura Precipitaţii Vânt Presiune Umiditate
    00:00 +19°C° 0 mm 1 m/s 736 mmHg 39%
    01:00 +19°C° 0 mm 1 m/s 736 mmHg 40%
    02:00 +18°C° 0 mm 1 m/s 736 mmHg 40%
    03:00 +18°C° 0 mm 1 m/s 736 mmHg 40%
    04:00 +18°C° 0 mm 1 m/s 736 mmHg 40%
    05:00 +18°C° 0 mm 1 m/s 736 mmHg 41%
    06:00 +18°C° 0 mm 1 m/s 736 mmHg 41%
    07:00 +19°C° 0 mm 1 m/s 736 mmHg 38%
    08:00 +21°C° 0 mm 1 m/s 736 mmHg 35%
    09:00 +22°C° 0 mm 1 m/s 736 mmHg 32%
    10:00 +23°C° 0 mm 1 m/s 736 mmHg 31%
    11:00 +24°C° 0 mm 2 m/s 736 mmHg 30%
    12:00 +25°C° 0 mm 2 m/s 736 mmHg 29%
    13:00 +25°C° 0 mm 2 m/s 736 mmHg 29%
    14:00 +25°C° 0 mm 2 m/s 736 mmHg 30%
    15:00 +25°C° 0 mm 2 m/s 735 mmHg 30%
    16:00 +24°C° 0 mm 2 m/s 736 mmHg 33%
    17:00 +21°C° 0 mm 2 m/s 736 mmHg 36%
    18:00 +21°C° 0 mm 1 m/s 736 mmHg 40%
    19:00 +20°C° 0 mm 1 m/s 736 mmHg 41%
    20:00 +20°C° 0 mm 1 m/s 737 mmHg 41%
    21:00 +19°C° 0 mm 1 m/s 737 mmHg 42%
    22:00 +19°C° 0 mm 1 m/s 737 mmHg 42%
    23:00 +19°C° 0 mm 1 m/s 737 mmHg 41%

    Poimâine, 23 Octombrie, Marţi

    Timp Temperatura Precipitaţii Vânt Presiune Umiditate
    00:00 +18°C° 0 mm 1 m/s 737 mmHg 41%
    01:00 +18°C° 0 mm 1 m/s 737 mmHg 41%
    02:00 +18°C° 0 mm 1 m/s 737 mmHg 41%
    03:00 +18°C° 0 mm 1 m/s 737 mmHg 41%
    04:00 +16°C° 0 mm 1 m/s 736 mmHg 42%
    05:00 +16°C° 0 mm 1 m/s 736 mmHg 44%
    06:00 +16°C° 0 mm 1 m/s 736 mmHg 46%
    07:00 +19°C° 0 mm 1 m/s 736 mmHg 43%
    08:00 +20°C° 0 mm 1 m/s 737 mmHg 41%
    09:00 +22°C° 0 mm 1 m/s 737 mmHg 38%
    10:00 +23°C° 0 mm 2 m/s 736 mmHg 36%
    11:00 +24°C° 0 mm 2 m/s 736 mmHg 35%
    12:00 +25°C° 0 mm 2 m/s 735 mmHg 33%
    13:00 +25°C° 0 mm 2 m/s 735 mmHg 32%
    14:00 +25°C° 0 mm 2 m/s 735 mmHg 32%
    15:00 +25°C° 0 mm 2 m/s 734 mmHg 31%
    16:00 +24°C° 0 mm 2 m/s 734 mmHg 34%
    17:00 +21°C° 0 mm 2 m/s 734 mmHg 37%
    18:00 +20°C° 0 mm 1 m/s 734 mmHg 40%
    19:00 +20°C° 0 mm 1 m/s 735 mmHg 40%
    20:00 +19°C° 0 mm 2 m/s 735 mmHg 39%
    21:00 +18°C° 0 mm 2 m/s 735 mmHg 39%
    22:00 +18°C° 0 mm 2 m/s 734 mmHg 39%
    23:00 +18°C° 0 mm 2 m/s 734 mmHg 40%

    24 Octombrie, Miercuri

    Timp Temperatura Precipitaţii Vânt Presiune Umiditate
    00:00 +18°C° 0 mm 2 m/s 734 mmHg 41%
    01:00 +18°C° 0 mm 2 m/s 733 mmHg 43%
    02:00 +17°C° 0 mm 2 m/s 733 mmHg 46%
    03:00 +17°C° 0 mm 2 m/s 733 mmHg 48%
    04:00 +17°C° 0 mm 2 m/s 733 mmHg 50%
    05:00 +17°C° 0 mm 2 m/s 733 mmHg 51%
    06:00 +17°C° 0 mm 2 m/s 732 mmHg 53%
    07:00 +18°C° 0 mm 2 m/s 732 mmHg 47%
    08:00 +20°C° 0 mm 3 m/s 732 mmHg 42%
    09:00 +22°C° 0 mm 3 m/s 732 mmHg 37%
    10:00 +24°C° 0 mm 3 m/s 732 mmHg 34%
    11:00 +25°C° 0 mm 3 m/s 731 mmHg 31%
    12:00 +26°C° 0 mm 3 m/s 731 mmHg 29%
    13:00 +26°C° 0 mm 3 m/s 730 mmHg 29%
    14:00 +26°C° 0 mm 3 m/s 730 mmHg 29%
    15:00 +26°C° 0 mm 3 m/s 729 mmHg 29%
    16:00 +25°C° 0 mm 3 m/s 729 mmHg 32%
    17:00 +23°C° 0 mm 2 m/s 729 mmHg 35%
    18:00 +21°C° 0 mm 2 m/s 729 mmHg 38%
    19:00 +20°C° 0 mm 2 m/s 729 mmHg 40%
    20:00 +20°C° 0 mm 2 m/s 728 mmHg 41%
    21:00 +19°C° 0 mm 2 m/s 728 mmHg 43%
    22:00 +19°C° 0 mm 2 m/s 728 mmHg 44%
    23:00 +19°C° 0 mm 2 m/s 727 mmHg 46%

    25 Octombrie, Joi

    Timp Temperatura Precipitaţii Vânt Presiune Umiditate
    00:00 +19°C° 0 mm 2 m/s 727 mmHg 47%
    01:00 +19°C° 0 mm 2 m/s 727 mmHg 48%
    02:00 +19°C° 0 mm 3 m/s 726 mmHg 50%
    03:00 +18°C° 0 mm 3 m/s 726 mmHg 51%
    04:00 +18°C° 0 mm 3 m/s 726 mmHg 52%
    05:00 +18°C° 0 mm 3 m/s 725 mmHg 53%
    06:00 +17°C° 0 mm 3 m/s 725 mmHg 54%
    07:00 +19°C° 0 mm 4 m/s 725 mmHg 48%
    08:00 +21°C° 0 mm 4 m/s 725 mmHg 42%
    09:00 +23°C° 0 mm 4 m/s 725 mmHg 36%
    10:00 +25°C° 0 mm 5 m/s 724 mmHg 34%
    11:00 +26°C° 0 mm 5 m/s 724 mmHg 32%
    12:00 +28°C° 0 mm 5 m/s 724 mmHg 30%
    13:00 +28°C° 0 mm 5 m/s 723 mmHg 30%
    14:00 +28°C° 0 mm 5 m/s 723 mmHg 30%
    15:00 +28°C° 0 mm 4 m/s 723 mmHg 29%
    16:00 +26°C° 0 mm 4 m/s 723 mmHg 32%
    17:00 +25°C° 0 mm 3 m/s 723 mmHg 35%
    18:00 +22°C° 0 mm 3 m/s 724 mmHg 38%
    19:00 +23°C° 0 mm 2 m/s 724 mmHg 40%
    20:00 +21°C° 0 mm 2 m/s 724 mmHg 42%
    21:00 +21°C° 0 mm 2 m/s 724 mmHg 43%
    22:00 +20°C° 0 mm 2 m/s 724 mmHg 44%
    23:00 +20°C° 0 mm 2 m/s 724 mmHg 44%

    26 Octombrie, Vineri

    Timp Temperatura Precipitaţii Vânt Presiune Umiditate
    00:00 +20°C° 0 mm 2 m/s 724 mmHg 45%
    01:00 +20°C° 0 mm 2 m/s 724 mmHg 46%
    02:00 +20°C° 0 mm 2 m/s 724 mmHg 46%
    03:00 +20°C° 0 mm 3 m/s 724 mmHg 47%
    04:00 +19°C° 0 mm 2 m/s 725 mmHg 49%
    05:00 +19°C° 0 mm 2 m/s 725 mmHg 50%
    06:00 +19°C° 0 mm 1 m/s 725 mmHg 52%
    07:00 +20°C° 0 mm 2 m/s 726 mmHg 47%
    08:00 +23°C° 0 mm 2 m/s 726 mmHg 42%
    09:00 +24°C° 0 mm 2 m/s 727 mmHg 37%
    10:00 +25°C° 0 mm 3 m/s 727 mmHg 37%
    11:00 +25°C° 0 mm 3 m/s 727 mmHg 36%
    12:00 +26°C° 0 mm 3 m/s 727 mmHg 36%
    13:00 +25°C° 0.1 mm 4 m/s 728 mmHg 39%
    14:00 +23°C° 0.1 mm 4 m/s 728 mmHg 43%
    15:00 +22°C° 0.1 mm 5 m/s 728 mmHg 46%
    16:00 +20°C° 0.2 mm 4 m/s 729 mmHg 53%
    17:00 +19°C° 0.2 mm 4 m/s 729 mmHg 61%
    18:00 +17°C° 0.2 mm 3 m/s 730 mmHg 68%
    19:00 +16°C° 0.4 mm 3 m/s 731 mmHg 71%
    20:00 +16°C° 0.4 mm 3 m/s 731 mmHg 74%
    21:00 +14°C° 0.4 mm 3 m/s 732 mmHg 77%
    22:00 +14°C° 0.4 mm 4 m/s 733 mmHg 77%
    23:00 +14°C° 0.4 mm 4 m/s 733 mmHg 77%
    Arată mai mult